SCP
-0 0 -0 -0 -0 -0 -0 -0 -0 -0 -0 -0 -0 -0 -0 0 0 0 0 0 0 0 0 0 0 0 0 0 -0 -0 -0 0
-0 -0 -0 -0 -0 -0 -0 -0 -0 -0 -0 -0 -0 -0 -0 0 0 0 0 0 0 0 0 -0 0 0 0 0 0 0 -0 0
-0 -0 -0 -0 -0 -0 -0 -0 -0 -0 -0 -0 -0 -0 0 0 0 0 0 0 0 0 0 -0 -0 0 0 0 0 0 0 0
-0 -0 -0 -0 -0 -0 -0 -0 0 0 -0 0 0 0 0 0 0 0 0 0 0 0 0 0 0 -0 0 0 0 0 0 0
-0 -0 0 0 0 0 0 0 0 0 0 0 0 0 0 0 0 -0 -0 -0 -0 0 0 0 0 0 0 0 0 0 0 0
0 0 0 0 0 0 0 0 0 0 0 0 0 0 0 -0 -0 -0 -0 -0 -0 -0 -0 0 0 0 0 0 0 0 0 0
0 0 0 0 0 0 0 0 0 0 0 0 0 0 0 -0 -0 -0 -0 -0 -0 -0 -0 -0 0 0 0 0 -0 -0 0 0
0 0 0 0 0 0 0 0 0 0 0 0 0 0 0 -0 -0 -0 -0 -0 -0 -0 -0 -0 -0 0 0 0 0 -0 0 0
0 0 0 0 0 0 0 0 0 0 0 0 0 0 0 0 0 -0 0 0 0 0 0 0 0 0 0 0 0 -0 0 0
0 0 0 -0 -0 0 0 0 0 0 0 0 0 0 0 0 0 0 0 0 0 0 0 0 0 0 0 0 0 0 -0 0
0 -0 -0 0 0 0 0 0 0 0 0 0 0 0 0 0 0 0 0 0 0 0 0 0 0 0 0 0 0 0 0 0
0 0 0 -0 -0 0 0 0 0 0 0 0 0 0 0 0 0 0 0 0 0 0 0 0 0 0 0 0 0 0 0 0
0 0 0 0 0 0 0 0 0 0 0 0 0 0 0 0 0 0 0 0 0 0 0 0 0 0 0 0 0 0 0 0
0 0 0 0 0 0 0 0 0 0 0 0 0 0 0 0 0 0 0 0 0 0 0 0 0 0 0 0 0 0 0 0
-0 0 0 0 0 0 0 0 0 0 0 0 0 0 0 0 0 0 0 1 0 1 0 0 0 0 0 0 0 0 0 0
-0 -0 0 0 0 0 1 1 1 0 1 0 0 0 0 0 0 0 0 1 1 1 0 0 0 0 0 0 0 0 0 0
-0 -0 -0 0 0 1 1 1 1 1 1 1 1 1 0 0 0 0 0 1 1 0 0 0 0 0 0 0 0 0 0 0
0 0 0 0 2 1 2 1 2 2 2 1 1 1 1 1 1 0 0 0 0 0 0 0 0 0 0 0 0 0 0 0
0 0 0 0 0 0 0 1 1 1 1 1 1 1 0 0 0 0 1 0 0 0 0 0 0 0 0 1 0 0 0 0
Wind_Speed_500mb
62 57 52 45 40 36 33 31 30 29 27 26 25 24 23 22 20 21 21 22 21 22 22 22 21 20 20 20 23 27 31 36
60 58 53 47 41 36 33 31 29 27 26 25 24 23 22 20 18 17 18 18 17 17 17 17 16 15 15 16 16 19 19 21
55 57 55 49 43 38 34 31 30 27 26 25 24 22 21 19 18 15 13 13 14 13 12 13 13 13 11 10 7 7 9 10
54 54 55 51 44 38 36 34 31 28 26 25 23 21 20 18 16 13 12 10 9 11 9 9 9 10 11 11 6 3 2 3
52 51 52 51 48 44 41 36 31 29 27 24 22 21 20 17 14 11 10 7 7 7 7 6 3 4 8 10 10 11 7 9
47 48 49 49 48 47 44 41 37 33 30 28 26 23 21 18 14 11 8 5 4 3 5 5 5 4 6 11 12 14 15 14
46 45 47 49 50 48 45 44 41 39 36 33 28 26 23 19 16 14 12 9 6 2 2 3 3 5 9 8 10 15 15 18
47 46 48 54 52 50 48 46 45 42 39 36 32 30 26 24 22 20 19 13 10 6 6 11 7 4 6 3 3 9 13 18
51 41 41 50 57 54 54 52 48 47 43 38 35 32 31 29 28 23 22 19 12 7 4 2 5 8 7 7 8 6 11 15
49 41 48 45 56 58 58 54 52 47 40 36 37 36 35 33 32 29 28 21 18 16 11 8 8 8 11 11 13 16 17 17
40 44 34 47 47 58 57 54 50 46 40 39 39 37 37 36 36 36 32 32 22 19 15 14 16 17 19 23 23 25 21 21
44 49 57 56 46 56 59 57 51 44 38 33 40 36 38 37 35 38 39 31 24 20 20 20 20 24 22 24 26 24 27 27
51 54 58 59 54 50 50 51 51 44 40 34 32 37 32 32 33 31 31 30 21 25 27 27 29 30 30 30 31 28 29 33
58 54 59 59 61 58 49 43 44 44 46 41 35 35 35 39 38 36 34 30 29 33 36 36 34 34 34 29 33 29 31 37
67 54 54 55 57 68 59 52 47 50 50 49 47 45 44 47 49 47 41 41 35 40 38 37 39 37 34 30 34 35 35 39
76 64 62 59 61 72 71 56 47 50 55 51 51 45 40 40 41 37 39 41 42 46 42 38 40 41 37 37 39 38 41 37
81 73 72 69 68 72 66 61 54 51 52 52 50 46 47 47 45 47 47 44 38 44 49 42 33 32 33 34 35 37 42 41
73 72 69 67 76 75 74 73 65 57 57 59 58 60 56 62 64 60 53 51 44 45 44 29 28 26 30 34 34 33 25 24
24 41 52 52 61 62 71 67 72 60 38 50 50 49 46 43 39 44 48 55 53 44 41 32 45 27 38 45 47 40 36 39
Wind_Direction_500mb
175 176 173 171 172 171 166 162 159 156 152 148 144 140 137 137 136 133 127 121 116 111 107 107 108 106 98 86 83 86 83 76
176 177 174 175 177 178 175 170 168 164 158 156 151 147 145 145 144 143 139 132 127 122 117 115 114 116 110 95 81 86 85 75
181 180 178 179 181 183 182 180 176 173 170 165 160 157 157 155 152 149 147 146 134 132 132 130 131 131 140 125 105 83 94 73
185 185 184 184 185 188 190 190 186 183 180 177 173 168 170 167 162 159 150 145 132 130 148 147 151 149 157 167 194 238 35 14
184 189 190 189 191 194 195 196 196 193 191 190 186 184 183 179 178 176 168 148 114 96 97 105 126 179 189 189 207 234 263 287
183 189 197 200 201 201 200 199 199 200 200 200 199 198 198 192 189 188 185 160 108 74 56 33 18 323 250 223 218 229 243 264
185 193 203 210 211 210 208 208 206 206 206 206 204 207 208 203 201 198 196 188 186 179 109 44 15 352 309 262 238 238 246 253
180 190 203 213 214 218 219 215 214 214 213 213 210 213 213 212 215 211 191 183 158 128 106 77 78 78 12 351 356 247 258 270
189 198 206 210 212 218 223 222 219 219 218 219 219 219 221 221 222 216 206 199 190 176 176 102 62 36 356 328 322 313 295 290
200 212 217 204 210 215 222 224 224 224 224 228 228 228 230 232 235 230 229 225 221 226 235 263 296 307 322 326 326 297 309 305
206 229 214 219 218 218 224 227 229 225 228 231 233 234 240 241 243 245 244 240 236 236 258 275 276 279 274 286 290 300 310 312
211 226 226 218 215 220 222 225 229 223 222 235 234 234 241 243 245 250 250 251 257 264 260 272 273 271 275 279 295 290 292 297
218 232 229 217 213 213 217 221 225 223 232 241 238 227 234 239 242 252 260 266 276 275 272 266 271 267 269 280 293 287 299 304
224 218 218 218 216 216 215 220 230 237 237 241 240 236 241 246 251 255 263 272 272 270 277 273 268 263 269 276 293 302 295 303
218 213 215 220 221 222 220 223 229 234 239 244 246 249 255 255 254 256 264 266 269 259 275 280 279 278 284 284 293 289 286 290
212 210 209 221 220 223 223 227 232 239 244 247 253 259 266 268 272 272 277 282 270 270 284 285 288 287 294 294 289 294 289 295
213 215 208 220 224 223 224 222 228 237 250 261 262 260 264 267 271 276 278 286 274 270 269 283 286 295 283 295 294 296 302 299
226 228 226 232 228 224 225 230 232 236 246 254 257 253 254 257 260 264 269 269 259 257 254 276 308 304 289 282 280 276 282 280
245 249 252 251 240 233 226 235 240 241 254 261 257 258 254 254 260 265 273 273 270 264 257 263 303 292 279 286 265 258 259 273
Wind_Speed_850mb
62 57 52 45 40 36 33 31 30 29 27 26 25 24 23 22 20 21 21 22 21 22 22 22 21 20 20 20 23 27 31 36
60 58 53 47 41 36 33 31 29 27 26 25 24 23 22 20 18 17 18 18 17 17 17 17 16 15 15 16 16 19 19 21
55 57 55 49 43 38 34 31 30 27 26 25 24 22 21 19 18 15 13 13 14 13 12 13 13 13 11 10 7 7 9 10
54 54 55 51 44 38 36 34 31 28 26 25 23 21 20 18 16 13 12 10 9 11 9 9 9 10 11 11 6 3 2 3
52 51 52 51 48 44 41 36 31 29 27 24 22 21 20 17 14 11 10 7 7 7 7 6 3 4 8 10 10 11 7 9
47 48 49 49 48 47 44 41 37 33 30 28 26 23 21 18 14 11 8 5 4 3 5 5 5 4 6 11 12 14 15 14
46 45 47 49 50 48 45 44 41 39 36 33 28 26 23 19 16 14 12 9 6 2 2 3 3 5 9 8 10 15 15 18
47 46 48 54 52 50 48 46 45 42 39 36 32 30 26 24 22 20 19 13 10 6 6 11 7 4 6 3 3 9 13 18
51 41 41 50 57 54 54 52 48 47 43 38 35 32 31 29 28 23 22 19 12 7 4 2 5 8 7 7 8 6 11 15
49 41 48 45 56 58 58 54 52 47 40 36 37 36 35 33 32 29 28 21 18 16 11 8 8 8 11 11 13 16 17 17
40 44 34 47 47 58 57 54 50 46 40 39 39 37 37 36 36 36 32 32 22 19 15 14 16 17 19 23 23 25 21 21
44 49 57 56 46 56 59 57 51 44 38 33 40 36 38 37 35 38 39 31 24 20 20 20 20 24 22 24 26 24 27 27
51 54 58 59 54 50 50 51 51 44 40 34 32 37 32 32 33 31 31 30 21 25 27 27 29 30 30 30 31 28 29 33
58 54 59 59 61 58 49 43 44 44 46 41 35 35 35 39 38 36 34 30 29 33 36 36 34 34 34 29 33 29 31 37
67 54 54 55 57 68 59 52 47 50 50 49 47 45 44 47 49 47 41 41 35 40 38 37 39 37 34 30 34 35 35 39
76 64 62 59 61 72 71 56 47 50 55 51 51 45 40 40 41 37 39 41 42 46 42 38 40 41 37 37 39 38 41 37
81 73 72 69 68 72 66 61 54 51 52 52 50 46 47 47 45 47 47 44 38 44 49 42 33 32 33 34 35 37 42 41
73 72 69 67 76 75 74 73 65 57 57 59 58 60 56 62 64 60 53 51 44 45 44 29 28 26 30 34 34 33 25 24
24 41 52 52 61 62 71 67 72 60 38 50 50 49 46 43 39 44 48 55 53 44 41 32 45 27 38 45 47 40 36 39
Wind_Direction_850mb
175 176 173 171 172 171 166 162 159 156 152 148 144 140 137 137 136 133 127 121 116 111 107 107 108 106 98 86 83 86 83 76
176 177 174 175 177 178 175 170 168 164 158 156 151 147 145 145 144 143 139 132 127 122 117 115 114 116 110 95 81 86 85 75
181 180 178 179 181 183 182 180 176 173 170 165 160 157 157 155 152 149 147 146 134 132 132 130 131 131 140 125 105 83 94 73
185 185 184 184 185 188 190 190 186 183 180 177 173 168 170 167 162 159 150 145 132 130 148 147 151 149 157 167 194 238 35 14
184 189 190 189 191 194 195 196 196 193 191 190 186 184 183 179 178 176 168 148 114 96 97 105 126 179 189 189 207 234 263 287
183 189 197 200 201 201 200 199 199 200 200 200 199 198 198 192 189 188 185 160 108 74 56 33 18 323 250 223 218 229 243 264
185 193 203 210 211 210 208 208 206 206 206 206 204 207 208 203 201 198 196 188 186 179 109 44 15 352 309 262 238 238 246 253
180 190 203 213 214 218 219 215 214 214 213 213 210 213 213 212 215 211 191 183 158 128 106 77 78 78 12 351 356 247 258 270
189 198 206 210 212 218 223 222 219 219 218 219 219 219 221 221 222 216 206 199 190 176 176 102 62 36 356 328 322 313 295 290
200 212 217 204 210 215 222 224 224 224 224 228 228 228 230 232 235 230 229 225 221 226 235 263 296 307 322 326 326 297 309 305
206 229 214 219 218 218 224 227 229 225 228 231 233 234 240 241 243 245 244 240 236 236 258 275 276 279 274 286 290 300 310 312
211 226 226 218 215 220 222 225 229 223 222 235 234 234 241 243 245 250 250 251 257 264 260 272 273 271 275 279 295 290 292 297
218 232 229 217 213 213 217 221 225 223 232 241 238 227 234 239 242 252 260 266 276 275 272 266 271 267 269 280 293 287 299 304
224 218 218 218 216 216 215 220 230 237 237 241 240 236 241 246 251 255 263 272 272 270 277 273 268 263 269 276 293 302 295 303
218 213 215 220 221 222 220 223 229 234 239 244 246 249 255 255 254 256 264 266 269 259 275 280 279 278 284 284 293 289 286 290
212 210 209 221 220 223 223 227 232 239 244 247 253 259 266 268 272 272 277 282 270 270 284 285 288 287 294 294 289 294 289 295
213 215 208 220 224 223 224 222 228 237 250 261 262 260 264 267 271 276 278 286 274 270 269 283 286 295 283 295 294 296 302 299
226 228 226 232 228 224 225 230 232 236 246 254 257 253 254 257 260 264 269 269 259 257 254 276 308 304 289 282 280 276 282 280
245 249 252 251 240 233 226 235 240 241 254 261 257 258 254 254 260 265 273 273 270 264 257 263 303 292 279 286 265 258 259 273